FW4526 Weather Reports


time (UTC)temp
F
wind
direction
speed
knots
gust
knots
rain 1hr
in
rain 24hr
in
rain mn
in
humidity
%
barometer
mb
20260507214554 61 186 2.6 7.0 0.00 0.12 0.04 66 1006.3
20260507213048 61 125 3.5 7.8 0.00 0.12 0.04 66 1006.4
20260507211548 61 198 2.6 7.8 0.00 0.12 0.04 67 1006.3
20260507210048 61 80 1.7 6.1 0.00 0.12 0.04 66 1006.4
20260507204552 61 134 3.5 8.7 0.00 0.12 0.04 65 1006.2
20260507203042 61 101 0.9 11.3 0.00 0.12 0.04 68 1006.4
20260507201552 61 148 2.6 10.4 0.00 0.12 0.04 67 1006.2
20260507200041 61 146 3.5 9.6 0.00 0.12 0.04 67 1006.4
20260507194540 63 171 3.5 10.4 0.00 0.12 0.04 63 1006.6
20260507193037 64 130 3.5 6.1 0.00 0.12 0.04 56 1006.6
20260507191535 64 73 2.6 8.7 0.00 0.12 0.04 52 1006.7
20260507190033 63 75 1.7 5.2 0.00 0.12 0.04 56 1007.1
20260507184533 60 114 1.7 6.1 0.00 0.12 0.04 58 1007.1
20260507183030 60 94 1.7 5.2 0.00 0.12 0.04 57 1007.2
20260507181531 60 82 0.9 7.0 0.00 0.12 0.04 60 1007.3
20260507180030 61 87 2.6 6.1 0.00 0.12 0.04 56 1007.6
20260507174539 62 101 2.6 6.1 0.00 0.12 0.04 55 1007.7
20260507173030 62 34 0.9 7.0 0.00 0.12 0.04 59 1008.0
20260507171528 61 121 3.5 7.0 0.00 0.12 0.04 58 1008.2
20260507170039 61 315 2.6 7.8 0.00 0.12 0.04 57 1008.7
20260507164525 59 76 2.6 6.1 0.00 0.12 0.04 56 1009.0
20260507163022 60 344 2.6 6.1 0.00 0.12 0.04 60 1009.2
20260507161523 58 329 2.6 8.7 0.00 0.12 0.04 58 1009.3
20260507160021 57 284 2.6 6.1 0.00 0.12 0.04 61 1009.4
20260507154521 56 44 0.9 4.3 0.00 0.12 0.04 65 1009.6
20260507153021 56 46 2.6 7.0 0.00 0.12 0.04 61 1009.8
20260507151519 56 355 3.5 7.0 0.00 0.13 0.04 61 1009.8
20260507150018 56 44 1.7 7.0 0.00 0.13 0.04 69 1010.2
20260507144517 55 336 4.3 7.0 0.00 0.13 0.04 62 1010.3
20260507143016 54 40 1.7 6.1 0.00 0.13 0.04 68 1010.4
20260507141513 53 12 4.3 9.6 0.00 0.16 0.04 67 1010.4
20260507140012 53 329 1.7 6.1 0.00 0.16 0.04 72 1010.8
20260507134512 53 27 2.6 6.1 0.00 0.16 0.04 70 1010.9
20260507133009 53 5 0.9 3.5 0.00 0.16 0.04 69 1010.9
20260507131513 52 323 0.9 4.3 0.00 0.28 0.04 71 1010.8
20260507130009 52 342 1.7 5.2 0.00 0.28 0.04 69 1010.8
20260507124510 52 344 1.7 4.3 0.00 0.28 0.04 69 1010.8
20260507123002 52 282 0.9 3.5 0.00 0.28 0.04 70 1010.8
20260507121502 52 42 0.0 4.3 0.00 0.33 0.04 74 1010.7
20260507120003 52 30 0.9 4.3 0.00 0.33 0.04 75 1010.8
20260507114615 52 329 0.9 4.3 0.00 0.33 0.04 77 1010.3
20260507113102 52 28 0.9 4.3 0.00 0.33 0.04 77 1010.1
20260507111604 52 42 0.9 3.5 0.00 0.35 0.04 78 1010.0
20260507110106 52 36 1.7 4.3 0.00 0.35 0.04 78 1010.1
20260507104554 53 21 0.0 1.7 0.00 0.35 0.04 81 1009.7
20260507103054 53 19 0.0 3.5 0.00 0.35 0.04 81 1009.7
20260507101559 53 355 0.9 2.6 0.00 0.35 0.04 84 1009.7
20260507100049 53 350 0.0 1.7 0.00 0.35 0.04 85 1009.5
20260507094548 53 338 0.0 2.6 0.00 0.35 0.04 86 1009.2
20260507093053 53 325 0.0 1.7 0.00 0.35 0.04 87 1009.4
20260507091549 53 325 0.0 1.7 0.00 0.35 0.04 87 1008.9
20260507090043 53 325 0.0 2.6 0.00 0.35 0.04 87 1009.1
20260507084543 53 323 0.0 1.7 0.00 0.35 0.04 87 1009.2
20260507083042 53 323 0.0 1.7 0.00 0.35 0.04 87 1009.1
20260507081547 53 321 2.6 5.2 0.00 0.35 0.04 87 1009.0
20260507080038 53 345 0.0 1.7 0.00 0.35 0.04 88 1008.8
20260507074554 53 344 1.7 3.5 0.00 0.35 0.04 88 1008.5
20260507073037 53 325 1.7 5.2 0.00 0.35 0.04 88 1008.5
20260507071534 53 341 0.9 4.3 0.00 0.35 0.04 88 1008.5
20260507070033 53 350 0.9 2.6 0.00 0.35 0.04 89 1008.6
20260507064532 53 355 0.0 6.1 0.00 0.35 0.04 89 1008.5
20260507063032 54 28 0.9 5.2 0.00 0.35 0.04 89 1008.6
20260507061530 54 355 1.7 3.5 0.00 0.35 0.04 89 1009.1
20260507060027 54 319 0.9 3.5 0.00 0.35 0.04 90 1008.5
20260507054524 55 42 1.7 5.2 0.00 0.35 0.04 90 1008.6
20260507053023 55 5 2.6 7.8 0.00 0.35 0.04 89 1008.6
20260507051518 56 315 0.9 5.2 0.00 0.35 0.04 89 1008.7
20260507050025 56 344 1.7 7.8 0.00 0.35 0.04 88 1008.2
20260507044514 57 56 0.0 3.5 0.00 0.35 0.04 89 1008.4
20260507043013 57 327 0.0 5.2 0.00 0.35 0.04 87 1008.5
20260507041510 57 345 1.7 3.5 0.00 0.35 0.04 87 1008.3
20260507040009 57 340 1.7 7.8 0.00 0.35 0.04 86 1008.5
20260507034506 57 317 2.6 7.0 0.00 0.35 0.04 88 1008.2
20260507033012 57 342 0.9 4.3 0.03 0.35 0.04 89 1007.9
20260507031502 57 321 2.6 8.7 0.04 0.35 0.04 91 1007.9
20260507030000 57 338 2.6 7.8 0.04 0.35 0.04 91 1008.3
20260507024558 58 325 0.9 3.5 0.04 0.35 0.04 90 1007.6
20260507023104 60 323 3.5 7.8 0.01 0.32 0.01 87 1007.3
20260507021522 61 324 0.9 5.2 0.00 0.31 0.00 89 1007.6
20260507020020 61 350 0.9 4.3 0.00 0.31 0.00 90 1007.3
20260507014523 61 344 0.0 4.3 0.00 0.31 0.00 92 1007.3
20260507013014 61 349 1.7 3.5 0.00 0.31 0.00 92 1007.3
20260507011513 62 335 0.9 4.3 0.00 0.31 0.00 91 1007.2
20260507010012 62 317 1.7 6.1 0.00 0.31 0.00 91 1007.4
20260507004512 63 360 0.9 5.2 0.00 0.31 0.00 92 1007.2
20260507003005 63 346 1.7 6.1 0.00 0.31 0.00 94 1006.8
20260507001504 64 5 0.0 4.3 0.01 0.31 0.31 95 1006.9
20260507000003 64 344 1.7 5.2 0.06 0.31 0.31 97 1006.6
20260506234500 65 308 0.0 0.0 0.08 0.31 0.31 96 1006.4
20260506233126 65 308 0.0 1.7 0.08 0.31 0.31 94 1006.2
20260506231600 66 308 0.0 0.9 0.07 0.30 0.30 93 1006.1
20260506230100 67 306 0.9 1.7 0.02 0.25 0.25 88 1005.6
20260506224559 68 303 0.0 3.5 0.00 0.23 0.23 87 1005.6
20260506223102 68 226 1.7 6.1 0.00 0.23 0.23 86 1005.4
20260506221558 68 207 2.6 5.2 0.00 0.23 0.23 85 1005.6
20260506220056 69 116 1.7 7.8 0.00 0.23 0.23 85 1005.4